Simultaneous Nadir Overpasses (SNOs) Predictions

Prediction of SNOs between METOP-A and TERRA Satellite Orbit:

Table of predicted SNOs for the next 14.0 days since TLE Epoch: 12/7/2018
Index Date (METOP-A) Time (METOP-A) Lat,Lon (METOP-A) SZA (METOP-A ) Date (TERRA) Time (TERRA) Lat,Lon (TERRA) SZA (TERRA ) Distance(km) Time Diff (sec)
1 12/09/2018 06:33:25 -81.44, -48.69 72.69 12/09/2018 06:34:38 -81.43, -48.71 72.66 1.06 73
2 12/09/2018 07:24:04 81.44, 119.27 107.39 12/09/2018 07:24:04 81.44, 119.20 107.39 1.23 0
3 12/09/2018 08:14:45 -81.44, -73.47 72.62 12/09/2018 08:13:31 -81.43, -73.36 72.64 1.84 74
4 12/12/2018 02:58:19 81.44,-174.27 107.60 12/12/2018 02:58:26 81.44,-174.39 107.59 1.99 7
5 12/12/2018 03:49:00 -81.44, -6.97 72.41 12/12/2018 03:47:53 -81.44, -6.89 72.43 1.24 67
6 12/14/2018 22:32:35 81.44,-108.23 107.70 12/14/2018 22:32:53 81.43,-108.22 107.71 0.64 18
7 12/14/2018 23:23:15 -81.44, 59.52 72.26 12/14/2018 23:22:20 -81.43, 59.33 72.31 3.19 55
8 12/17/2018 18:06:49 81.44, -41.80 107.78 12/17/2018 18:07:23 81.43, -41.92 107.78 2.13 34
9 12/17/2018 18:57:29 -81.44, 125.98 72.17 12/17/2018 18:56:49 -81.45, 126.08 72.17 2.09 40
10 12/20/2018 13:41:04 81.44, 24.61 107.80 12/20/2018 13:41:58 81.43, 24.53 107.81 1.35 54




NCC Satellite Simultaneous Nadir Overpasses (SNOs) Prediction Service
